Location: Unspecified
(52.4292°N, 19.3359°E)
Time: 02:47:01
(UTC+02:00)

Vanguard 1 Rocket - Pass Details

Date: 28 May 2024
Orbit: 649 x 4221 km, 34.3° (Epoch: 13 June)

Event Time Altitude Azimuth Distance (km) Brightness Sun altitude
Rises 14:00:10 0° 271° (W) 6,924 12.1 55.5°
Reaches altitude 10° 14:07:33 10° 255° (WSW) 5,109 11.8 54.9°
Maximum altitude 14:14:49 17° 223° (SW) 3,698 11.5 54.2°
Drops below altitude 10° 14:20:08 10° 187° (S) 3,525 11.0 53.6°
Sets 14:23:49 0° 166° (SSE) 4,022 11.0 53.3°
